Back to catalog

MUSAT2

AliveWeatherSSO
NORAD 59099·PAYLOAD·🇺🇸 United States

Launched Mar 4, 2024 from Vandenberg Space Force Base

Loading…

Next Passes (next 24 hours)

TLE

FreshSource: Space-Track

Epoch: Sep 14, 2026, 08:56 UTC

1 59099U 24043B   26257.37235615  .00004494  00000-0  28414-3 0  9992
2 59099  97.8730  38.2368 0007732  40.4533 319.7269 15.09543327138543

Track MUSAT2 in real time with AllMySat

Download on the App Store